Location: Stoke Bliss
(52.2667°N, 2.5167°W)
Time: 12:50:50
(UTC+00:00)

Envisat - Pass Details

Date: 11 December 2021
Orbit: 764 x 766 km, 98.2° (Epoch: 23 January)

Event Time Altitude Azimuth Distance (km) Brightness Sun altitude
Rises 04:29:32 0° 20° (NNE) 3,247 6.5 -32.2°
Reaches altitude 10° 04:32:05 10° 31° (NNE) 2,315 5.8 -31.8°
Maximum altitude 04:36:40 33° 95° (E) 1,276 4.6 -31.1°
Drops below altitude 10° 04:41:13 10° 158° (SSE) 2,298 5.7 -30.4°
Sets 04:43:44 0° 168° (SSE) 3,219 6.4 -30.1°
